User: anonymous   Login
Location: Caltech
(34.1382°N, 118.1253°W)
Time: 21:06:58
(UTC-07:00)
Language:

Iridium 94 - Orbit

View from above orbital plane
View from above orbital plane
View from above satellite
View from above satellite

Ground track
Ground track

The orbit data is extracted from the following two-line orbital elements,

1 27374U 02005C   15148.50464515  .00000243  00000-0  79619-4 0  9994
2 27374 086.3990 209.4952 0002580 059.5165 022.1073 14.34217519708352
Epoch (UTC): 28 May 2015 12:06:41
Eccentricity: 0.0002580
inclination: 86.3990°
perigee height: 776 km
apogee height: 779 km
right ascension of ascending node: 209.4952°
argument of perigee: 59.5165°
revolutions per day: 14.34217519
mean anomaly at epoch: 22.1073°
orbit number at epoch: 70835

The dashed part of the orbit path shows where the satellite is in the earth's shadow,  

DLR